sat.trackr.live / text

‹ back to catalog

STARLINK-30310

NORAD 57733 · 2023-131B

PAYLOAD ACTIVE UNKNOWN

§ Identity

Operator
Country
US
Launch date
2023-09-01
Launch site
AFETR
Launch vehicle
Mass (kg)
RCS (m²)

Purposes: comms

External: N2YO · Heavens-Above · Gunter

§ Orbital elements

Epoch: 2026-05-25T03:51:23.082912Z

Period
94.32 min
Inclination
43.0057°
Eccentricity
0.0002022
Mean motion
15.26742476 rev/d
Perigee alt
484.2 km
Apogee alt
486.9 km
Semi-major
6,863.7 km
B*
4.8903e-5
RAAN
108.0794°
Arg perigee
286.4721°
Mean anomaly
73.5908°
Rev number
15,153

§ Raw data

STARLINK-303101 57733U 23131B   26145.16068383  .00001052  00000+0  48903-4 0  99932 57733  43.0057 108.0794 0002022 286.4721  73.5908 15.26742476151532

JSON: /api/v1/satellites/57733 · /tle

For live sub-satellite position, see the globe view (requires WebGL).

§ Visibility from observer

Set your observer location to see the next 7 days of passes ≥ 10°. The values pass through the URL so the page stays shareable.

No JS? Fill the form by hand. The geolocation button needs JavaScript.